Regional Weather Roundup
Issued by NWS

Home | Current Version | Previous Version | Graphics & Text | Print | Product List | Glossary On
Versions: 1 2 3 4 5 6 7 8 9 10 11 12 13 14 15 16 17 18 19 20 21 22 23 24 25 26 27 28 29 30 31 32 33 34 35 36 37 38 39 40 41 42 43 44 45 46 47 48 49 50
000
ASUS43 KMKX 211900
RWRWI

WISCONSIN REGIONAL WEATHER ROUNDUP
NATIONAL WEATHER SERVICE MILWAUKEE/SULLIVAN WI
100 PM CST TUE FEB 21 2017

NOTE: "FAIR" INDICATES FEW OR NO CLOUDS BELOW 12,000 FEET WITH NO
SIGNIFICANT WEATHER AND/OR OBSTRUCTIONS TO VISIBILITY.

WIZ001-002-006>008-014>016-023>028-212000-
NORTHWEST WISCONSIN

CITY           SKY/WX    TMP DP  RH WIND       PRES   REMARKS
SUPERIOR ARPT  MOSUNNY   47  38  68 SW8       29.78F
ASHLAND        SUNNY     53  38  56 SW9       29.79F
HAYWARD        SUNNY     49  36  61 S12       29.81F
SIREN          SUNNY     48  37  64 S8        29.80F
CUMBERLAND     SUNNY     43  37  81 SE7       29.83F
RICE LAKE      SUNNY     46  38  75 SE10      29.85F
CHETEK         SUNNY     46  39  76 SE9       29.86F
LADYSMITH      SUNNY     42  37  82 S5        29.89F
EAU CLAIRE     NOT AVBL
MENOMONIE      SUNNY     48  42  80 E8        29.85F
NEW RICHMOND   SUNNY     53  39  60 S13       29.80F
OSCEOLA        NOT AVBL
$$

WIZ003>005-009-010-017-018-212000-
NORTH CENTRAL WISCONSIN

CITY           SKY/WX    TMP DP  RH WIND       PRES   REMARKS
MANITOWISH WTR SUNNY     48  34  58 SW10      29.82F
ARBOR VITAE      N/A     52  35  52 SW10        N/A
WOODRUFF         N/A     52  35  52 SW10        N/A
RHINELANDER    SUNNY     53  34  48 W8        29.85F
EAGLE RIVER    SUNNY     49  33  53 SW8       29.83F
LAND O LAKES   SUNNY     52  30  42 SW8       29.83F
PHILLIPS       SUNNY     47  36  63 SW6       29.83F
TOMAHAWK       SUNNY     50  33  50 SW6       29.87F
MEDFORD        SUNNY     42  37  83 SW5       29.88F
MERRILL        NOT AVBL
$$

WIZ029-030-035-036-043>047-212000-
CENTRAL WISCONSIN

CITY           SKY/WX    TMP DP  RH WIND       PRES   REMARKS
WAUSAU         SUNNY     49  37  63 S8        29.88F
MOSINEE        SUNNY     48  39  71 SW8       29.90F
MARSHFIELD     SUNNY     51  39  63 S6        29.87F
STEVENS POINT  SUNNY     49  36  60 SW5       29.91F
WAUPACA        SUNNY     59  38  45 CALM      29.90F
WAUTOMA        SUNNY     58  40  51 CALM      29.90F
WISC RAPIDS    SUNNY     55  41  59 S6        29.90F
CAMP DOUGLAS   NOT AVBL
$$

WIZ011>013-019>022-031-037>040-048>050-212000-
NORTHEAST WISCONSIN

CITY           SKY/WX    TMP DP  RH WIND       PRES   REMARKS
ANTIGO         SUNNY     48  38  68 SW8       29.88F
SHAWANO        SUNNY     56  40  54 SW5       29.89F
OCONTO         SUNNY     56  38  51 W9        29.88S
STURGEON BAY   SUNNY     55  40  56 W10       29.88S
GREEN BAY      SUNNY     56  44  64 SW9       29.89F
MANITOWOC      NOT AVBL
APPLETON       MOSUNNY   54  39  58 SW7       29.89F
CLINTONVILLE   SUNNY     55  37  50 SW6       29.89F
OSHKOSH        SUNNY     55  45  68 VRB3      29.90F
$$

WIZ032>034-041-042-053>061-212000-
SOUTHWEST WISCONSIN

CITY           SKY/WX    TMP DP  RH WIND       PRES   REMARKS
LA CROSSE      SUNNY     55  41  59 S8        29.89F
SPARTA         SUNNY     56  41  56 S5        29.90F
VIROQUA        SUNNY     56  36  48 SW9       29.90F
BOSCOBEL       SUNNY     59  33  37 W7        29.92F
PRAIRIE DU CHI SUNNY     56  41  57 CALM      29.91F
PLATTEVILLE    SUNNY     57  43  59 SW3       29.94F
$$

WIZ056-057-062-063-064-067-068-212000-
SOUTH CENTRAL WISCONSIN

CITY           SKY/WX    TMP DP  RH WIND       PRES   REMARKS
REEDSBURG      SUNNY     57  44  61 CALM      29.91F
BARABOO/DELLS  SUNNY     57  40  51 W3        29.91F
LONE ROCK      NOT AVBL
MINERAL POINT  SUNNY     59  43  55 CALM      29.93F
MADISON        MOSUNNY   55  41  59 S3        29.92F
MIDDLETON        N/A     60  40  47 CALM      29.92F
WATERTOWN      SUNNY     55  45  68 W3        29.92F
MONROE         SUNNY     59  41  51 SW3       29.93S
JANESVILLE     MOSUNNY   57  46  67 CALM      29.94S
$$

WIZ051-052-058>065-066-070>072-212000-
SOUTHEAST WISCONSIN

CITY           SKY/WX    TMP DP  RH WIND       PRES   REMARKS
MILWAUKEE      MOSUNNY   61  45  55 VRB7      29.91F
WAUKESHA       MOSUNNY   59  45  58 W10       29.92F
MILWAUKEE/TIMM SUNNY     61  37  41 SW6       29.91F
RACINE         CLOUDY    61  44  53 W5        29.92F
KENOSHA        CLOUDY    60  47  61 W6        29.91F
FOND DU LAC    SUNNY     56  42  59 MISG      29.91F
SHEBOYGAN      SUNNY     59  41  51 W8        29.90S
WEST BEND      SUNNY     59  37  44 W5        29.91S
JUNEAU         SUNNY     52  43  72 SW3       29.93S
$$

LSZ147-162-212000-
LAKE SUPERIOR

STATION/POSITION TIME  TEMP    WIND        PRES    WAVE
                       AIR SEA DIR/SP/G            HT/PER
                 (UTC) (F)     (DEG/KT/KT) (MB)    (FT/S)
DEVILS ISLAND    1800   35     240/ 11/ 15 1010.1F
PORT WING        1840   37     320/  2/  3 1009.5F
SAXON HARBOR     1840   54     240/  7/ 14 1009.1F
$$

LMZ867-665-643>646-212000-
LAKE MICHIGAN

STATION/POSITION TIME  TEMP    WIND        PRES    WAVE
                       AIR SEA DIR/SP/G            HT/PER
                 (UTC) (F)     (DEG/KT/KT) (MB)    (FT/S)
CHAMBERS ISLAND  1840   51     190/  5/  8 1010.8S
NORTHPORT PIER   1840   55     260/  5/ 11 1010.8S
SISTER BAY       1705   56     280/  4/  5   N/A
KEWAUNEE LAKESHO 1830   54     270/ 11/ 14 1011.7R
SHEBOYGAN LAKESH 1800   54     260/  6/  8 1012.3F
PORT WASHINGTON  1840   51     160/  5/  6 1013.5F
MILWAUKEE LAKESH 1840   50     140/  8/  9   N/A
KENOSHA   LAKESH 1800   59     260/  3/  5 1013.2
$$

TC  - TEMPERATURE IN CELSIUS
VSB - VISIBILITY IN STATUTE MILES
WCI - WIND CHILL INDEX
HX  - HEAT INDEX





USA.gov is the U.S. government's official web portal to all federal, state and local government web resources and services.